Weather in Neverkino

Russia / Penza Oblast     52°47′25″N   46°44′20″E
temp.,
°C
wind,
m/s
gust,
m/s
humid.,
%
clouds,
%
prec.,
mm/h
press.,
hPa
HPBL,
m
28 september, tue
tue2800:00+6nne5988100 0.2 1016578
03:00+5ne61078100 0.2 1018559
06:00+4ne5887100 0.0 1020844
09:00+4ne6883100 0.1 1022931
12:00+6ne5864100 0.0 10241173
15:00+8ne585373 0.0 10241421
18:00+5nne4863100 0.0 1026187
21:00+4nne410705 0.0 1027329
29 september, wed
wed2900:00+2nne4978100 0.0 1028245
03:00+2n3880100 0.0 1029230
06:00+1nne410825 0.0 1030274
09:00+6ne58625 0.0 1030906
12:00+9ne564764 0.0 10301616
15:00+9nne564346 0.0 10291742
18:00+6nne375816 0.0 1030169
21:00+4ne34685 0.0 103186
30 september, thu
thu3000:00+3nne22725 0.0 103232
03:00+2n22765 0.0 103228
06:00+1n22805 0.0 103327
09:00+6nne23595 0.0 1033422
12:00+9n234769 0.0 10331440
15:00+10n3446100 0.0 10321683
18:00+8n3550100 0.0 1032145
21:00+7nne225990 0.0 103351
1 october, fri
fri100:00+7nw2362100 0.0 103394
03:00+6wnw3575100 0.0 1033112
06:00+6nw3677100 0.0 1033236
09:00+9nw4571100 0.0 1033483
12:00+9nw4576100 0.0 1033475
15:00+10nw357694 0.0 1032527
18:00+10w3581100 0.0 1032136
21:00+8nw239089 0.0 103340
2 october, sat
sat200:00+10nw2379100 0.0 103279
03:00+8nnw228615 0.0 103331
06:00+7nnw228956 0.0 103325
09:00+11nnw34715 0.0 1033343
12:00+15n335753 0.0 10331265
15:00+14n3358100 0.0 1032569
18:00+12n2573100 0.0 1033159
21:00+12n2477100 0.0 1034123